Date_Time,Julian_Date,Latitude,Longitude,Instrument_Depth,Water_Temperature
(yyyy-mm-dd hh:mn:ss UTC),(JD),(+ deg. North),(+ deg. East),(m),(deg. C)
1984-07-18 10:00:00 UTC,2445899.916667,25.7150,-84.8850,0738,5.3400
1984-07-18 10:30:00 UTC,2445899.937500,25.7150,-84.8850,0738,5.3430
1984-07-18 11:00:00 UTC,2445899.958333,25.7150,-84.8850,0738,5.3420
1984-07-18 11:30:00 UTC,2445899.979167,25.7150,-84.8850,0738,5.3700
1984-07-18 12:00:00 UTC,2445900.000000,25.7150,-84.8850,0738,5.3360
1984-07-18 12:30:00 UTC,2445900.020833,25.7150,-84.8850,0738,5.3160
1984-07-18 13:00:00 UTC,2445900.041667,25.7150,-84.8850,0738,5.2770
1984-07-18 13:30:00 UTC,2445900.062500,25.7150,-84.8850,0738,5.3020
1984-07-18 14:00:00 UTC,2445900.083333,25.7150,-84.8850,0738,5.2810
1984-07-18 14:30:00 UTC,2445900.104167,25.7150,-84.8850,0738,5.2800
1984-07-18 15:00:00 UTC,2445900.125000,25.7150,-84.8850,0738,5.2750
1984-07-18 15:30:00 UTC,2445900.145833,25.7150,-84.8850,0738,5.3370
1984-07-18 16:00:00 UTC,2445900.166667,25.7150,-84.8850,0738,5.3100
1984-07-18 16:30:00 UTC,2445900.187500,25.7150,-84.8850,0738,5.3150
1984-07-18 17:00:00 UTC,2445900.208333,25.7150,-84.8850,0738,5.3040
1984-07-18 17:30:00 UTC,2445900.229167,25.7150,-84.8850,0738,5.3890
1984-07-18 18:00:00 UTC,2445900.250000,25.7150,-84.8850,0738,5.3490
1984-07-18 18:30:00 UTC,2445900.270833,25.7150,-84.8850,0738,5.3200
1984-07-18 19:00:00 UTC,2445900.291667,25.7150,-84.8850,0738,5.3050
1984-07-18 19:30:00 UTC,2445900.312500,25.7150,-84.8850,0738,5.3690
1984-07-18 20:00:00 UTC,2445900.333333,25.7150,-84.8850,0738,5.3150
1984-07-18 20:30:00 UTC,2445900.354167,25.7150,-84.8850,0738,5.3560
1984-07-18 21:00:00 UTC,2445900.375000,25.7150,-84.8850,0738,5.3210
1984-07-18 21:30:00 UTC,2445900.395833,25.7150,-84.8850,0738,5.3260
1984-07-18 22:00:00 UTC,2445900.416667,25.7150,-84.8850,0738,5.3080
1984-07-18 22:30:00 UTC,2445900.437500,25.7150,-84.8850,0738,5.3680
1984-07-18 23:00:00 UTC,2445900.458333,25.7150,-84.8850,0738,5.3180
1984-07-18 23:30:00 UTC,2445900.479167,25.7150,-84.8850,0738,5.3730
1984-07-19 00:00:00 UTC,2445900.500000,25.7150,-84.8850,0738,5.3020
1984-07-19 00:30:00 UTC,2445900.520833,25.7150,-84.8850,0738,5.3620
1984-07-19 01:00:00 UTC,2445900.541667,25.7150,-84.8850,0738,5.3190
1984-07-19 01:30:00 UTC,2445900.562500,25.7150,-84.8850,0738,5.3290
1984-07-19 02:00:00 UTC,2445900.583333,25.7150,-84.8850,0738,5.3100
1984-07-19 02:30:00 UTC,2445900.604167,25.7150,-84.8850,0738,5.2860
1984-07-19 03:00:00 UTC,2445900.625000,25.7150,-84.8850,0738,5.2830
1984-07-19 03:30:00 UTC,2445900.645833,25.7150,-84.8850,0738,5.3450
1984-07-19 04:00:00 UTC,2445900.666667,25.7150,-84.8850,0738,5.2890
1984-07-19 04:30:00 UTC,2445900.687500,25.7150,-84.8850,0738,5.3220
1984-07-19 05:00:00 UTC,2445900.708333,25.7150,-84.8850,0738,5.3210
1984-07-19 05:30:00 UTC,2445900.729167,25.7150,-84.8850,0738,5.2660
1984-07-19 06:00:00 UTC,2445900.750000,25.7150,-84.8850,0738,5.2290
1984-07-19 06:30:00 UTC,2445900.770833,25.7150,-84.8850,0738,5.2640
1984-07-19 07:00:00 UTC,2445900.791667,25.7150,-84.8850,0738,5.2240
1984-07-19 07:30:00 UTC,2445900.812500,25.7150,-84.8850,0738,5.2330
1984-07-19 08:00:00 UTC,2445900.833333,25.7150,-84.8850,0738,5.2410
1984-07-19 08:30:00 UTC,2445900.854167,25.7150,-84.8850,0738,5.2290
1984-07-19 09:00:00 UTC,2445900.875000,25.7150,-84.8850,0738,5.2510
1984-07-19 09:30:00 UTC,2445900.895833,25.7150,-84.8850,0738,5.2080
1984-07-19 10:00:00 UTC,2445900.916667,25.7150,-84.8850,0738,5.2200
1984-07-19 10:30:00 UTC,2445900.937500,25.7150,-84.8850,0738,5.3280
1984-07-19 11:00:00 UTC,2445900.958333,25.7150,-84.8850,0738,5.2560
1984-07-19 11:30:00 UTC,2445900.979167,25.7150,-84.8850,0738,5.2740
1984-07-19 12:00:00 UTC,2445901.000000,25.7150,-84.8850,0738,5.2450
1984-07-19 12:30:00 UTC,2445901.020833,25.7150,-84.8850,0738,5.2180
1984-07-19 13:00:00 UTC,2445901.041667,25.7150,-84.8850,0738,5.2680
1984-07-19 13:30:00 UTC,2445901.062500,25.7150,-84.8850,0738,5.2370
1984-07-19 14:00:00 UTC,2445901.083333,25.7150,-84.8850,0738,5.2620
1984-07-19 14:30:00 UTC,2445901.104167,25.7150,-84.8850,0738,5.3390
1984-07-19 15:00:00 UTC,2445901.125000,25.7150,-84.8850,0738,5.2790
1984-07-19 15:30:00 UTC,2445901.145833,25.7150,-84.8850,0738,5.3740
1984-07-19 16:00:00 UTC,2445901.166667,25.7150,-84.8850,0738,5.2770
1984-07-19 16:30:00 UTC,2445901.187500,25.7150,-84.8850,0738,5.3130
1984-07-19 17:00:00 UTC,2445901.208333,25.7150,-84.8850,0738,5.2750
1984-07-19 17:30:00 UTC,2445901.229167,25.7150,-84.8850,0738,5.2550
1984-07-19 18:00:00 UTC,2445901.250000,25.7150,-84.8850,0738,5.2650
1984-07-19 18:30:00 UTC,2445901.270833,25.7150,-84.8850,0738,5.3190
1984-07-19 19:00:00 UTC,2445901.291667,25.7150,-84.8850,0738,5.2380
1984-07-19 19:30:00 UTC,2445901.312500,25.7150,-84.8850,0738,5.2900
1984-07-19 20:00:00 UTC,2445901.333333,25.7150,-84.8850,0738,5.2300
1984-07-19 20:30:00 UTC,2445901.354167,25.7150,-84.8850,0738,5.2250
1984-07-19 21:00:00 UTC,2445901.375000,25.7150,-84.8850,0738,5.2700
1984-07-19 21:30:00 UTC,2445901.395833,25.7150,-84.8850,0738,5.3500
1984-07-19 22:00:00 UTC,2445901.416667,25.7150,-84.8850,0738,5.2800
1984-07-19 22:30:00 UTC,2445901.437500,25.7150,-84.8850,0738,5.2750
1984-07-19 23:00:00 UTC,2445901.458333,25.7150,-84.8850,0738,5.2800
1984-07-19 23:30:00 UTC,2445901.479167,25.7150,-84.8850,0738,5.2650
1984-07-20 00:00:00 UTC,2445901.500000,25.7150,-84.8850,0738,5.2500
1984-07-20 00:30:00 UTC,2445901.520833,25.7150,-84.8850,0738,5.2750
1984-07-20 01:00:00 UTC,2445901.541667,25.7150,-84.8850,0738,5.2300
1984-07-20 01:30:00 UTC,2445901.562500,25.7150,-84.8850,0738,5.2500
1984-07-20 02:00:00 UTC,2445901.583333,25.7150,-84.8850,0738,5.2300
1984-07-20 02:30:00 UTC,2445901.604167,25.7150,-84.8850,0738,5.2750
1984-07-20 03:00:00 UTC,2445901.625000,25.7150,-84.8850,0738,5.2300
1984-07-20 03:30:00 UTC,2445901.645833,25.7150,-84.8850,0738,5.2650
1984-07-20 04:00:00 UTC,2445901.666667,25.7150,-84.8850,0738,5.2500
1984-07-20 04:30:00 UTC,2445901.687500,25.7150,-84.8850,0738,5.2900
1984-07-20 05:00:00 UTC,2445901.708333,25.7150,-84.8850,0738,5.2300
1984-07-20 05:30:00 UTC,2445901.729167,25.7150,-84.8850,0738,5.2800
1984-07-20 06:00:00 UTC,2445901.750000,25.7150,-84.8850,0738,5.2100
1984-07-20 06:30:00 UTC,2445901.770833,25.7150,-84.8850,0738,5.2350
1984-07-20 07:00:00 UTC,2445901.791667,25.7150,-84.8850,0738,5.2250
1984-07-20 07:30:00 UTC,2445901.812500,25.7150,-84.8850,0738,5.2650
1984-07-20 08:00:00 UTC,2445901.833333,25.7150,-84.8850,0738,5.2220
1984-07-20 08:30:00 UTC,2445901.854167,25.7150,-84.8850,0738,5.2740
1984-07-20 09:00:00 UTC,2445901.875000,25.7150,-84.8850,0738,5.2200
1984-07-20 09:30:00 UTC,2445901.895833,25.7150,-84.8850,0738,5.2590
1984-07-20 10:00:00 UTC,2445901.916667,25.7150,-84.8850,0738,5.2220
1984-07-20 10:30:00 UTC,2445901.937500,25.7150,-84.8850,0738,5.2690
1984-07-20 11:00:00 UTC,2445901.958333,25.7150,-84.8850,0738,5.2340
1984-07-20 11:30:00 UTC,2445901.979167,25.7150,-84.8850,0738,5.2940
1984-07-20 12:00:00 UTC,2445902.000000,25.7150,-84.8850,0738,5.2260
1984-07-20 12:30:00 UTC,2445902.020833,25.7150,-84.8850,0738,5.2220
1984-07-20 13:00:00 UTC,2445902.041667,25.7150,-84.8850,0738,5.2010
1984-07-20 13:30:00 UTC,2445902.062500,25.7150,-84.8850,0738,5.2250
1984-07-20 14:00:00 UTC,2445902.083333,25.7150,-84.8850,0738,5.1960
1984-07-20 14:30:00 UTC,2445902.104167,25.7150,-84.8850,0738,5.1660
1984-07-20 15:00:00 UTC,2445902.125000,25.7150,-84.8850,0738,5.1670
1984-07-20 15:30:00 UTC,2445902.145833,25.7150,-84.8850,0738,5.2390
1984-07-20 16:00:00 UTC,2445902.166667,25.7150,-84.8850,0738,5.1680
1984-07-20 16:30:00 UTC,2445902.187500,25.7150,-84.8850,0738,5.2000
1984-07-20 17:00:00 UTC,2445902.208333,25.7150,-84.8850,0738,5.1820
1984-07-20 17:30:00 UTC,2445902.229167,25.7150,-84.8850,0738,5.2200
1984-07-20 18:00:00 UTC,2445902.250000,25.7150,-84.8850,0738,5.1920
1984-07-20 18:30:00 UTC,2445902.270833,25.7150,-84.8850,0738,5.2340
1984-07-20 19:00:00 UTC,2445902.291667,25.7150,-84.8850,0738,5.1900
1984-07-20 19:30:00 UTC,2445902.312500,25.7150,-84.8850,0738,5.2180
1984-07-20 20:00:00 UTC,2445902.333333,25.7150,-84.8850,0738,5.1700
1984-07-20 20:30:00 UTC,2445902.354167,25.7150,-84.8850,0738,5.1950
1984-07-20 21:00:00 UTC,2445902.375000,25.7150,-84.8850,0738,5.1290
1984-07-20 21:30:00 UTC,2445902.395833,25.7150,-84.8850,0738,5.1470
1984-07-20 22:00:00 UTC,2445902.416667,25.7150,-84.8850,0738,5.1230
1984-07-20 22:30:00 UTC,2445902.437500,25.7150,-84.8850,0738,5.1600
1984-07-20 23:00:00 UTC,2445902.458333,25.7150,-84.8850,0738,5.1320
1984-07-20 23:30:00 UTC,2445902.479167,25.7150,-84.8850,0738,5.1540
1984-07-21 00:00:00 UTC,2445902.500000,25.7150,-84.8850,0738,5.1410
1984-07-21 00:30:00 UTC,2445902.520833,25.7150,-84.8850,0738,5.1380
1984-07-21 01:00:00 UTC,2445902.541667,25.7150,-84.8850,0738,5.1090
1984-07-21 01:30:00 UTC,2445902.562500,25.7150,-84.8850,0738,5.1170
1984-07-21 02:00:00 UTC,2445902.583333,25.7150,-84.8850,0738,5.1180
1984-07-21 02:30:00 UTC,2445902.604167,25.7150,-84.8850,0738,5.1500
1984-07-21 03:00:00 UTC,2445902.625000,25.7150,-84.8850,0738,5.1300
1984-07-21 03:30:00 UTC,2445902.645833,25.7150,-84.8850,0738,5.1280
1984-07-21 04:00:00 UTC,2445902.666667,25.7150,-84.8850,0738,5.1230
1984-07-21 04:30:00 UTC,2445902.687500,25.7150,-84.8850,0738,5.1680
1984-07-21 05:00:00 UTC,2445902.708333,25.7150,-84.8850,0738,5.1090
1984-07-21 05:30:00 UTC,2445902.729167,25.7150,-84.8850,0738,5.1150
1984-07-21 06:00:00 UTC,2445902.750000,25.7150,-84.8850,0738,5.0730
1984-07-21 06:30:00 UTC,2445902.770833,25.7150,-84.8850,0738,5.0920
1984-07-21 07:00:00 UTC,2445902.791667,25.7150,-84.8850,0738,5.0520
1984-07-21 07:30:00 UTC,2445902.812500,25.7150,-84.8850,0738,5.0880
1984-07-21 08:00:00 UTC,2445902.833333,25.7150,-84.8850,0738,5.0820
1984-07-21 08:30:00 UTC,2445902.854167,25.7150,-84.8850,0738,5.0800
1984-07-21 09:00:00 UTC,2445902.875000,25.7150,-84.8850,0738,5.0420
1984-07-21 09:30:00 UTC,2445902.895833,25.7150,-84.8850,0738,5.0200
1984-07-21 10:00:00 UTC,2445902.916667,25.7150,-84.8850,0738,5.0500
1984-07-21 10:30:00 UTC,2445902.937500,25.7150,-84.8850,0738,5.1020
1984-07-21 11:00:00 UTC,2445902.958333,25.7150,-84.8850,0738,5.0250
1984-07-21 11:30:00 UTC,2445902.979167,25.7150,-84.8850,0738,5.0350
1984-07-21 12:00:00 UTC,2445903.000000,25.7150,-84.8850,0738,5.0240
1984-07-21 12:30:00 UTC,2445903.020833,25.7150,-84.8850,0738,5.0390
1984-07-21 13:00:00 UTC,2445903.041667,25.7150,-84.8850,0738,5.0340
1984-07-21 13:30:00 UTC,2445903.062500,25.7150,-84.8850,0738,5.0420
1984-07-21 14:00:00 UTC,2445903.083333,25.7150,-84.8850,0738,5.0330
1984-07-21 14:30:00 UTC,2445903.104167,25.7150,-84.8850,0738,5.0460
1984-07-21 15:00:00 UTC,2445903.125000,25.7150,-84.8850,0738,5.0650
1984-07-21 15:30:00 UTC,2445903.145833,25.7150,-84.8850,0738,5.0730
1984-07-21 16:00:00 UTC,2445903.166667,25.7150,-84.8850,0738,5.0970
1984-07-21 16:30:00 UTC,2445903.187500,25.7150,-84.8850,0738,5.1280
1984-07-21 17:00:00 UTC,2445903.208333,25.7150,-84.8850,0738,5.0750
1984-07-21 17:30:00 UTC,2445903.229167,25.7150,-84.8850,0738,5.1260
1984-07-21 18:00:00 UTC,2445903.250000,25.7150,-84.8850,0738,5.1370
1984-07-21 18:30:00 UTC,2445903.270833,25.7150,-84.8850,0738,5.1740
1984-07-21 19:00:00 UTC,2445903.291667,25.7150,-84.8850,0738,5.1260
1984-07-21 19:30:00 UTC,2445903.312500,25.7150,-84.8850,0738,5.1300
1984-07-21 20:00:00 UTC,2445903.333333,25.7150,-84.8850,0738,5.1520
1984-07-21 20:30:00 UTC,2445903.354167,25.7150,-84.8850,0738,5.1710
1984-07-21 21:00:00 UTC,2445903.375000,25.7150,-84.8850,0738,5.1340
1984-07-21 21:30:00 UTC,2445903.395833,25.7150,-84.8850,0738,5.1350
1984-07-21 22:00:00 UTC,2445903.416667,25.7150,-84.8850,0738,5.1300
1984-07-21 22:30:00 UTC,2445903.437500,25.7150,-84.8850,0738,5.1420
1984-07-21 23:00:00 UTC,2445903.458333,25.7150,-84.8850,0738,5.1030
1984-07-21 23:30:00 UTC,2445903.479167,25.7150,-84.8850,0738,5.1100
1984-07-22 00:00:00 UTC,2445903.500000,25.7150,-84.8850,0738,5.0740
1984-07-22 00:30:00 UTC,2445903.520833,25.7150,-84.8850,0738,5.1120
1984-07-22 01:00:00 UTC,2445903.541667,25.7150,-84.8850,0738,5.1160
1984-07-22 01:30:00 UTC,2445903.562500,25.7150,-84.8850,0738,5.1300
1984-07-22 02:00:00 UTC,2445903.583333,25.7150,-84.8850,0738,5.0480
1984-07-22 02:30:00 UTC,2445903.604167,25.7150,-84.8850,0738,5.0480
1984-07-22 03:00:00 UTC,2445903.625000,25.7150,-84.8850,0738,5.0720
1984-07-22 03:30:00 UTC,2445903.645833,25.7150,-84.8850,0738,5.0780
1984-07-22 04:00:00 UTC,2445903.666667,25.7150,-84.8850,0738,5.0600
1984-07-22 04:30:00 UTC,2445903.687500,25.7150,-84.8850,0738,5.0600
1984-07-22 05:00:00 UTC,2445903.708333,25.7150,-84.8850,0738,5.0850
1984-07-22 05:30:00 UTC,2445903.729167,25.7150,-84.8850,0738,5.0960
1984-07-22 06:00:00 UTC,2445903.750000,25.7150,-84.8850,0738,5.0790
1984-07-22 06:30:00 UTC,2445903.770833,25.7150,-84.8850,0738,5.0900
1984-07-22 07:00:00 UTC,2445903.791667,25.7150,-84.8850,0738,5.0810
1984-07-22 07:30:00 UTC,2445903.812500,25.7150,-84.8850,0738,5.0870
1984-07-22 08:00:00 UTC,2445903.833333,25.7150,-84.8850,0738,5.0980
1984-07-22 08:30:00 UTC,2445903.854167,25.7150,-84.8850,0738,5.1050
1984-07-22 09:00:00 UTC,2445903.875000,25.7150,-84.8850,0738,5.0920
1984-07-22 09:30:00 UTC,2445903.895833,25.7150,-84.8850,0738,5.0840
1984-07-22 10:00:00 UTC,2445903.916667,25.7150,-84.8850,0738,5.1040
1984-07-22 10:30:00 UTC,2445903.937500,25.7150,-84.8850,0738,5.0920
1984-07-22 11:00:00 UTC,2445903.958333,25.7150,-84.8850,0738,5.0680
1984-07-22 11:30:00 UTC,2445903.979167,25.7150,-84.8850,0738,5.0590
1984-07-22 12:00:00 UTC,2445904.000000,25.7150,-84.8850,0738,5.0550
1984-07-22 12:30:00 UTC,2445904.020833,25.7150,-84.8850,0738,5.0450
1984-07-22 13:00:00 UTC,2445904.041667,25.7150,-84.8850,0738,5.0660
1984-07-22 13:30:00 UTC,2445904.062500,25.7150,-84.8850,0738,5.1120
1984-07-22 14:00:00 UTC,2445904.083333,25.7150,-84.8850,0738,5.1310
1984-07-22 14:30:00 UTC,2445904.104167,25.7150,-84.8850,0738,5.1220
1984-07-22 15:00:00 UTC,2445904.125000,25.7150,-84.8850,0738,5.1260
1984-07-22 15:30:00 UTC,2445904.145833,25.7150,-84.8850,0738,5.1340
1984-07-22 16:00:00 UTC,2445904.166667,25.7150,-84.8850,0738,5.1540
1984-07-22 16:30:00 UTC,2445904.187500,25.7150,-84.8850,0738,5.1320
1984-07-22 17:00:00 UTC,2445904.208333,25.7150,-84.8850,0738,5.1410
1984-07-22 17:30:00 UTC,2445904.229167,25.7150,-84.8850,0738,5.1220
1984-07-22 18:00:00 UTC,2445904.250000,25.7150,-84.8850,0738,5.1330
1984-07-22 18:30:00 UTC,2445904.270833,25.7150,-84.8850,0738,5.1030
1984-07-22 19:00:00 UTC,2445904.291667,25.7150,-84.8850,0738,5.1270
1984-07-22 19:30:00 UTC,2445904.312500,25.7150,-84.8850,0738,5.1230
1984-07-22 20:00:00 UTC,2445904.333333,25.7150,-84.8850,0738,5.1290
1984-07-22 20:30:00 UTC,2445904.354167,25.7150,-84.8850,0738,5.1030
1984-07-22 21:00:00 UTC,2445904.375000,25.7150,-84.8850,0738,5.1140
1984-07-22 21:30:00 UTC,2445904.395833,25.7150,-84.8850,0738,5.1040
1984-07-22 22:00:00 UTC,2445904.416667,25.7150,-84.8850,0738,5.0940
1984-07-22 22:30:00 UTC,2445904.437500,25.7150,-84.8850,0738,5.0920
1984-07-22 23:00:00 UTC,2445904.458333,25.7150,-84.8850,0738,5.1650
1984-07-22 23:30:00 UTC,2445904.479167,25.7150,-84.8850,0738,5.1010
1984-07-23 00:00:00 UTC,2445904.500000,25.7150,-84.8850,0738,5.1420
1984-07-23 00:30:00 UTC,2445904.520833,25.7150,-84.8850,0738,5.1330
1984-07-23 01:00:00 UTC,2445904.541667,25.7150,-84.8850,0738,5.1670
1984-07-23 01:30:00 UTC,2445904.562500,25.7150,-84.8850,0738,5.1670
1984-07-23 02:00:00 UTC,2445904.583333,25.7150,-84.8850,0738,5.1230
1984-07-23 02:30:00 UTC,2445904.604167,25.7150,-84.8850,0738,5.1370
1984-07-23 03:00:00 UTC,2445904.625000,25.7150,-84.8850,0738,5.1730
1984-07-23 03:30:00 UTC,2445904.645833,25.7150,-84.8850,0738,5.1680
1984-07-23 04:00:00 UTC,2445904.666667,25.7150,-84.8850,0738,5.2200
1984-07-23 04:30:00 UTC,2445904.687500,25.7150,-84.8850,0738,5.1810
1984-07-23 05:00:00 UTC,2445904.708333,25.7150,-84.8850,0738,5.1820
1984-07-23 05:30:00 UTC,2445904.729167,25.7150,-84.8850,0738,5.1640
1984-07-23 06:00:00 UTC,2445904.750000,25.7150,-84.8850,0738,5.2050
1984-07-23 06:30:00 UTC,2445904.770833,25.7150,-84.8850,0738,5.1730
1984-07-23 07:00:00 UTC,2445904.791667,25.7150,-84.8850,0738,5.1890
1984-07-23 07:30:00 UTC,2445904.812500,25.7150,-84.8850,0738,5.1690
1984-07-23 08:00:00 UTC,2445904.833333,25.7150,-84.8850,0738,5.1570
1984-07-23 08:30:00 UTC,2445904.854167,25.7150,-84.8850,0738,5.1420
1984-07-23 09:00:00 UTC,2445904.875000,25.7150,-84.8850,0738,5.0700
1984-07-23 09:30:00 UTC,2445904.895833,25.7150,-84.8850,0738,5.1050
1984-07-23 10:00:00 UTC,2445904.916667,25.7150,-84.8850,0738,5.2190
1984-07-23 10:30:00 UTC,2445904.937500,25.7150,-84.8850,0738,5.1460
1984-07-23 11:00:00 UTC,2445904.958333,25.7150,-84.8850,0738,5.1840
1984-07-23 11:30:00 UTC,2445904.979167,25.7150,-84.8850,0738,5.1190
1984-07-23 12:00:00 UTC,2445905.000000,25.7150,-84.8850,0738,5.0270
1984-07-23 12:30:00 UTC,2445905.020833,25.7150,-84.8850,0738,5.0740
1984-07-23 13:00:00 UTC,2445905.041667,25.7150,-84.8850,0738,5.0210
1984-07-23 13:30:00 UTC,2445905.062500,25.7150,-84.8850,0738,5.0390
1984-07-23 14:00:00 UTC,2445905.083333,25.7150,-84.8850,0738,5.1350
1984-07-23 14:30:00 UTC,2445905.104167,25.7150,-84.8850,0738,5.0720
1984-07-23 15:00:00 UTC,2445905.125000,25.7150,-84.8850,0738,5.1160
1984-07-23 15:30:00 UTC,2445905.145833,25.7150,-84.8850,0738,5.0700
1984-07-23 16:00:00 UTC,2445905.166667,25.7150,-84.8850,0738,5.1030
1984-07-23 16:30:00 UTC,2445905.187500,25.7150,-84.8850,0738,5.0620
1984-07-23 17:00:00 UTC,2445905.208333,25.7150,-84.8850,0738,5.1420
1984-07-23 17:30:00 UTC,2445905.229167,25.7150,-84.8850,0738,5.0880
1984-07-23 18:00:00 UTC,2445905.250000,25.7150,-84.8850,0738,5.1670
1984-07-23 18:30:00 UTC,2445905.270833,25.7150,-84.8850,0738,5.1000
1984-07-23 19:00:00 UTC,2445905.291667,25.7150,-84.8850,0738,5.1030
1984-07-23 19:30:00 UTC,2445905.312500,25.7150,-84.8850,0738,5.1180
1984-07-23 20:00:00 UTC,2445905.333333,25.7150,-84.8850,0738,5.1380
1984-07-23 20:30:00 UTC,2445905.354167,25.7150,-84.8850,0738,5.1020
1984-07-23 21:00:00 UTC,2445905.375000,25.7150,-84.8850,0738,5.1380
1984-07-23 21:30:00 UTC,2445905.395833,25.7150,-84.8850,0738,5.0930
1984-07-23 22:00:00 UTC,2445905.416667,25.7150,-84.8850,0738,5.1310
1984-07-23 22:30:00 UTC,2445905.437500,25.7150,-84.8850,0738,5.1290
1984-07-23 23:00:00 UTC,2445905.458333,25.7150,-84.8850,0738,5.1590
1984-07-23 23:30:00 UTC,2445905.479167,25.7150,-84.8850,0738,5.1460
1984-07-24 00:00:00 UTC,2445905.500000,25.7150,-84.8850,0738,5.0800
1984-07-24 00:30:00 UTC,2445905.520833,25.7150,-84.8850,0738,5.1320
1984-07-24 01:00:00 UTC,2445905.541667,25.7150,-84.8850,0738,5.1710
1984-07-24 01:30:00 UTC,2445905.562500,25.7150,-84.8850,0738,5.1320
1984-07-24 02:00:00 UTC,2445905.583333,25.7150,-84.8850,0738,5.1550
1984-07-24 02:30:00 UTC,2445905.604167,25.7150,-84.8850,0738,5.1120
1984-07-24 03:00:00 UTC,2445905.625000,25.7150,-84.8850,0738,5.1430
1984-07-24 03:30:00 UTC,2445905.645833,25.7150,-84.8850,0738,5.1210
1984-07-24 04:00:00 UTC,2445905.666667,25.7150,-84.8850,0738,5.1440
1984-07-24 04:30:00 UTC,2445905.687500,25.7150,-84.8850,0738,5.1290
1984-07-24 05:00:00 UTC,2445905.708333,25.7150,-84.8850,0738,5.1640
1984-07-24 05:30:00 UTC,2445905.729167,25.7150,-84.8850,0738,5.1330
1984-07-24 06:00:00 UTC,2445905.750000,25.7150,-84.8850,0738,5.1360
1984-07-24 06:30:00 UTC,2445905.770833,25.7150,-84.8850,0738,5.1090
1984-07-24 07:00:00 UTC,2445905.791667,25.7150,-84.8850,0738,5.1500
1984-07-24 07:30:00 UTC,2445905.812500,25.7150,-84.8850,0738,5.0940
1984-07-24 08:00:00 UTC,2445905.833333,25.7150,-84.8850,0738,5.1090
1984-07-24 08:30:00 UTC,2445905.854167,25.7150,-84.8850,0738,5.0910
1984-07-24 09:00:00 UTC,2445905.875000,25.7150,-84.8850,0738,5.1090
1984-07-24 09:30:00 UTC,2445905.895833,25.7150,-84.8850,0738,5.0920
1984-07-24 10:00:00 UTC,2445905.916667,25.7150,-84.8850,0738,5.0850
1984-07-24 10:30:00 UTC,2445905.937500,25.7150,-84.8850,0738,5.0880
1984-07-24 11:00:00 UTC,2445905.958333,25.7150,-84.8850,0738,5.1090
1984-07-24 11:30:00 UTC,2445905.979167,25.7150,-84.8850,0738,5.0900
1984-07-24 12:00:00 UTC,2445906.000000,25.7150,-84.8850,0738,5.1500
1984-07-24 12:30:00 UTC,2445906.020833,25.7150,-84.8850,0738,5.1300
1984-07-24 13:00:00 UTC,2445906.041667,25.7150,-84.8850,0738,5.1850
1984-07-24 13:30:00 UTC,2445906.062500,25.7150,-84.8850,0738,5.1300
1984-07-24 14:00:00 UTC,2445906.083333,25.7150,-84.8850,0738,5.1650
1984-07-24 14:30:00 UTC,2445906.104167,25.7150,-84.8850,0738,5.1100
1984-07-24 15:00:00 UTC,2445906.125000,25.7150,-84.8850,0738,5.1350
1984-07-24 15:30:00 UTC,2445906.145833,25.7150,-84.8850,0738,5.1100
1984-07-24 16:00:00 UTC,2445906.166667,25.7150,-84.8850,0738,5.1100
1984-07-24 16:30:00 UTC,2445906.187500,25.7150,-84.8850,0738,5.1100
1984-07-24 17:00:00 UTC,2445906.208333,25.7150,-84.8850,0738,5.1250
1984-07-24 17:30:00 UTC,2445906.229167,25.7150,-84.8850,0738,5.0900
1984-07-24 18:00:00 UTC,2445906.250000,25.7150,-84.8850,0738,5.1000
1984-07-24 18:30:00 UTC,2445906.270833,25.7150,-84.8850,0738,5.0800
1984-07-24 19:00:00 UTC,2445906.291667,25.7150,-84.8850,0738,5.1100
1984-07-24 19:30:00 UTC,2445906.312500,25.7150,-84.8850,0738,5.0800
1984-07-24 20:00:00 UTC,2445906.333333,25.7150,-84.8850,0738,5.1450
1984-07-24 20:30:00 UTC,2445906.354167,25.7150,-84.8850,0738,5.0900
1984-07-24 21:00:00 UTC,2445906.375000,25.7150,-84.8850,0738,5.1150
1984-07-24 21:30:00 UTC,2445906.395833,25.7150,-84.8850,0738,5.0900
1984-07-24 22:00:00 UTC,2445906.416667,25.7150,-84.8850,0738,5.1400
1984-07-24 22:30:00 UTC,2445906.437500,25.7150,-84.8850,0738,5.0900
1984-07-24 23:00:00 UTC,2445906.458333,25.7150,-84.8850,0738,5.1210
1984-07-24 23:30:00 UTC,2445906.479167,25.7150,-84.8850,0738,5.0780
1984-07-25 00:00:00 UTC,2445906.500000,25.7150,-84.8850,0738,5.1100
1984-07-25 00:30:00 UTC,2445906.520833,25.7150,-84.8850,0738,5.0930
1984-07-25 01:00:00 UTC,2445906.541667,25.7150,-84.8850,0738,5.1290
1984-07-25 01:30:00 UTC,2445906.562500,25.7150,-84.8850,0738,5.0770
1984-07-25 02:00:00 UTC,2445906.583333,25.7150,-84.8850,0738,5.0840
1984-07-25 02:30:00 UTC,2445906.604167,25.7150,-84.8850,0738,5.0840
1984-07-25 03:00:00 UTC,2445906.625000,25.7150,-84.8850,0738,5.1240
1984-07-25 03:30:00 UTC,2445906.645833,25.7150,-84.8850,0738,5.0800
1984-07-25 04:00:00 UTC,2445906.666667,25.7150,-84.8850,0738,5.1100
1984-07-25 04:30:00 UTC,2445906.687500,25.7150,-84.8850,0738,5.0910
1984-07-25 05:00:00 UTC,2445906.708333,25.7150,-84.8850,0738,5.1090
1984-07-25 05:30:00 UTC,2445906.729167,25.7150,-84.8850,0738,5.0860
1984-07-25 06:00:00 UTC,2445906.750000,25.7150,-84.8850,0738,5.1070
1984-07-25 06:30:00 UTC,2445906.770833,25.7150,-84.8850,0738,5.0620
1984-07-25 07:00:00 UTC,2445906.791667,25.7150,-84.8850,0738,5.1200
1984-07-25 07:30:00 UTC,2445906.812500,25.7150,-84.8850,0738,5.0800
1984-07-25 08:00:00 UTC,2445906.833333,25.7150,-84.8850,0738,5.1100
1984-07-25 08:30:00 UTC,2445906.854167,25.7150,-84.8850,0738,5.0930
1984-07-25 09:00:00 UTC,2445906.875000,25.7150,-84.8850,0738,5.1270
1984-07-25 09:30:00 UTC,2445906.895833,25.7150,-84.8850,0738,5.0840
1984-07-25 10:00:00 UTC,2445906.916667,25.7150,-84.8850,0738,5.1720
1984-07-25 10:30:00 UTC,2445906.937500,25.7150,-84.8850,0738,5.1460
1984-07-25 11:00:00 UTC,2445906.958333,25.7150,-84.8850,0738,5.2360
1984-07-25 11:30:00 UTC,2445906.979167,25.7150,-84.8850,0738,5.1680
1984-07-25 12:00:00 UTC,2445907.000000,25.7150,-84.8850,0738,5.1940
1984-07-25 12:30:00 UTC,2445907.020833,25.7150,-84.8850,0738,5.1600
1984-07-25 13:00:00 UTC,2445907.041667,25.7150,-84.8850,0738,5.1730
1984-07-25 13:30:00 UTC,2445907.062500,25.7150,-84.8850,0738,5.1660
1984-07-25 14:00:00 UTC,2445907.083333,25.7150,-84.8850,0738,5.2130
1984-07-25 14:30:00 UTC,2445907.104167,25.7150,-84.8850,0738,5.1570
1984-07-25 15:00:00 UTC,2445907.125000,25.7150,-84.8850,0738,5.1730
1984-07-25 15:30:00 UTC,2445907.145833,25.7150,-84.8850,0738,5.1470
1984-07-25 16:00:00 UTC,2445907.166667,25.7150,-84.8850,0738,5.1710
1984-07-25 16:30:00 UTC,2445907.187500,25.7150,-84.8850,0738,5.1010